Location: Observatoire
(46.1952°N, 5.3391°E)
Time: 14:40:42
(UTC+01:00)

A-11 Canister half - Pass Details

Date: 24 February 2026
Orbit: 1513 x 1687 km, 47.2° (Epoch: 11 March)

Event Time Altitude Azimuth Distance (km) Brightness Sun altitude
Rises 23:16:13 0° 277° (W) 4,939 12.1 -47.7°
Reaches altitude 10° 23:19:24 10° 278° (W) 3,942 11.4 -48.1°
Enters shadow 23:24:21 34° 280° (W) 2,496 10.2 -48.5°
Maximum altitude 23:29:36 87° 8° (N) 1,657 - -49.0°
Drops below altitude 10° 23:39:28 10° 99° (E) 3,825 - -49.9°
Sets 23:42:30 0° 100° (E) 4,787 - -50.1°
